WY1U-1 Weather Reports


time (UTC)temp
F
wind
direction
speed
knots
gust
knots
rain 1hr
in
rain 24hr
in
rain mn
in
humidity
%
barometer
mb
20260509180150 64 181 0.9 3.5 0.00 0.03 0.02 66 1011.6
20260509150150 58 227 0.0 1.7 0.00 0.03 0.02 80 1013.2
20260509140150 54 82 0.0 1.7 0.00 0.03 0.02 84 1013.2
20260509130153 50 336 0.0 0.9 0.00 0.03 0.02 88 1014.2
20260509120152 49 10 0.9 2.6 0.00 0.03 0.02 89 1014.8
20260509110151 48 26 0.0 1.7 0.00 0.03 0.02 94 1014.4
20260509100152 47 0 0.0 0.0 0.00 0.03 0.01 93 1014.2
20260509093149 47 0 0.0 0.0 0.00 0.03 0.01 93 1014.0
20260509090150 47 0 0.0 0.0 0.01 0.03 0.01 91 1014.2
20260509083149 48 0 0.0 0.0 0.01 0.03 0.01 86 1014.1
20260509080149 48 308 0.0 1.7 0.00 0.01 0.00 85 1013.9
20260509070150 48 0 0.0 0.0 0.00 0.01 0.00 86 1013.7
20260509063149 49 0 0.0 0.0 0.00 0.01 0.00 85 1014.2
20260509060149 49 0 0.0 0.0 0.00 0.01 0.00 84 1014.2
20260509053149 49 0 0.0 0.0 0.00 0.01 0.00 85 1014.3
20260509050149 49 0 0.0 0.0 0.00 0.01 0.00 84 1014.4
20260509043150 49 0 0.0 0.0 0.00 0.01 0.00 83 1014.6
20260509040149 48 0 0.0 0.0 0.00 0.01 0.00 81 1014.5
20260509030149 47 0 0.0 0.0 0.00 0.01 0.01 80 1014.0
20260509020150 48 0 0.0 0.0 0.00 0.01 0.01 72 1013.8
20260509000150 56 0 0.0 0.0 0.00 0.01 0.01 59 1012.3
20260508230150 59 292 1.7 5.2 0.00 0.01 0.01 49 1011.4
20260508210150 58 265 5.2 10.4 0.00 0.01 0.01 55 1011.2
20260508200150 55 248 3.5 7.8 0.01 0.01 0.01 73 1011.7